Location: Chisholm
(54.9102°N, 114.1701°W)
Time: 03:52:22
(UTC+00:00)

ISS - Pass Details

Date: 01 December 2021
Orbit: 413 x 422 km, 51.6° (Epoch: 23 January)

Event Time Altitude Azimuth Distance (km) Brightness Sun altitude
Rises 00:30:17 0° 258° (WSW) 2,384 2.0 -10.2°
Reaches altitude 10° 00:32:26 10° 253° (WSW) 1,517 0.7 -10.4°
Maximum altitude 00:35:44 48° 178° (S) 562 -3.0 -10.9°
Enters shadow 00:38:38 13° 104° (ESE) 1,358 -1.7 -11.3°
